N98CK KGPI-KNOW

Flight info

Callsign N98CK
Flight time 1h 7m
Altitude 43000
Route RIDDG1 RIDDG DCT TWISP DCT
Aircraft C750/M-VGD/C

Departure

Time 2026-05-08 21:20
Airport Glacier Park International Airport (KGPI)

Arrival

Time 2026-05-08 22:27
Airport Port Angeles Cgas Airport (KNOW)
Time Latitude Longitude Altitude Speed Heading
2026-05-08 21:13 48.30743 -114.25497 2975 ft 0 kts 102°
2026-05-08 21:15 48.30743 -114.25490 2975 ft 1 kts 90°
2026-05-08 21:15 48.30744 -114.25481 2975 ft 1 kts 69°
2026-05-08 21:15 48.30748 -114.25477 2975 ft 2 kts 41°
2026-05-08 21:15 48.30796 -114.25492 2975 ft 13 kts 321°
2026-05-08 21:16 48.30863 -114.25533 2975 ft 10 kts 33°
2026-05-08 21:16 48.30915 -114.25481 2975 ft 9 kts 34°
2026-05-08 21:16 48.30963 -114.25431 2976 ft 8 kts 34°
2026-05-08 21:16 48.31014 -114.25379 2976 ft 10 kts 34°
2026-05-08 21:17 48.31074 -114.25317 2977 ft 11 kts 37°
2026-05-08 21:17 48.31141 -114.25248 2977 ft 12 kts 31°
2026-05-08 21:17 48.31216 -114.25172 2978 ft 14 kts 35°
2026-05-08 21:17 48.31301 -114.25080 2976 ft 17 kts 32°
2026-05-08 21:18 48.31397 -114.24980 2978 ft 17 kts 36°
2026-05-08 21:18 48.31498 -114.24872 2979 ft 19 kts 35°
2026-05-08 21:18 48.31608 -114.24758 2980 ft 19 kts 34°
2026-05-08 21:18 48.31711 -114.24655 2981 ft 16 kts 34°
2026-05-08 21:19 48.31795 -114.24565 2982 ft 13 kts 32°
2026-05-08 21:19 48.31856 -114.24583 2983 ft 7 kts 308°
2026-05-08 21:19 48.31883 -114.24654 2983 ft 9 kts 277°
2026-05-08 21:19 48.31826 -114.24744 2982 ft 23 kts 214°
2026-05-08 21:20 48.31433 -114.25148 2978 ft 112 kts 214°
2026-05-08 21:20 48.30646 -114.25931 3108 ft 146 kts 211°
2026-05-08 21:20 48.29825 -114.26891 3668 ft 153 kts 221°
2026-05-08 21:20 48.29060 -114.28141 4154 ft 173 kts 231°
2026-05-08 21:21 48.28298 -114.29652 4711 ft 189 kts 227°
2026-05-08 21:21 48.27357 -114.31247 4902 ft 223 kts 239°
2026-05-08 21:21 48.26741 -114.33518 4780 ft 247 kts 251°
2026-05-08 21:21 48.26125 -114.35951 4650 ft 251 kts 246°
2026-05-08 21:22 48.25315 -114.38383 5271 ft 258 kts 243°
2026-05-08 21:22 48.24502 -114.40704 6424 ft 252 kts 245°
2026-05-08 21:22 48.23651 -114.43070 7044 ft 262 kts 237°
2026-05-08 21:22 48.22340 -114.44993 7914 ft 266 kts 224°
2026-05-08 21:23 48.20974 -114.46893 8874 ft 267 kts 226°
2026-05-08 21:23 48.19636 -114.48814 9717 ft 272 kts 226°
2026-05-08 21:23 48.18299 -114.50880 10251 ft 282 kts 234°
2026-05-08 21:23 48.17472 -114.53665 10435 ft 299 kts 253°
2026-05-08 21:24 48.16826 -114.56616 11357 ft 297 kts 251°
2026-05-08 21:24 48.16109 -114.59557 12017 ft 303 kts 250°
2026-05-08 21:24 48.15375 -114.62543 12723 ft 307 kts 251°
2026-05-08 21:24 48.14672 -114.65547 13360 ft 312 kts 252°
2026-05-08 21:25 48.13947 -114.68630 14034 ft 315 kts 251°
2026-05-08 21:25 48.12791 -114.71461 14596 ft 323 kts 230°
2026-05-08 21:25 48.11169 -114.73811 15286 ft 323 kts 225°
2026-05-08 21:25 48.09504 -114.76118 15918 ft 327 kts 226°
2026-05-08 21:26 48.07852 -114.78448 16579 ft 330 kts 226°
2026-05-08 21:26 48.06176 -114.80828 17232 ft 333 kts 226°
2026-05-08 21:26 48.04495 -114.83195 17935 ft 336 kts 226°
2026-05-08 21:26 48.02775 -114.85607 18574 ft 339 kts 227°
2026-05-08 21:27 48.01049 -114.88032 19176 ft 342 kts 227°
2026-05-08 21:27 47.99329 -114.90449 19803 ft 344 kts 226°
2026-05-08 21:27 47.97574 -114.92912 20417 ft 348 kts 226°
2026-05-08 21:27 47.95800 -114.95394 21062 ft 351 kts 226°
2026-05-08 21:28 47.94010 -114.97900 21682 ft 354 kts 226°
2026-05-08 21:28 47.92202 -115.00429 22304 ft 358 kts 226°
2026-05-08 21:28 47.90373 -115.02983 22953 ft 361 kts 226°
2026-05-08 21:28 47.88551 -115.05525 23574 ft 364 kts 225°
2026-05-08 21:29 47.86693 -115.08116 24093 ft 367 kts 225°
2026-05-08 21:29 47.84814 -115.10733 24626 ft 370 kts 226°
2026-05-08 21:29 47.82923 -115.13363 25104 ft 373 kts 225°
2026-05-08 21:29 47.81020 -115.16006 25656 ft 375 kts 225°
2026-05-08 21:30 47.79129 -115.18631 26152 ft 378 kts 226°
2026-05-08 21:30 47.77195 -115.21314 26657 ft 381 kts 226°
2026-05-08 21:30 47.75236 -115.24028 27150 ft 384 kts 226°
2026-05-08 21:30 47.73270 -115.26748 27656 ft 387 kts 226°
2026-05-08 21:31 47.71312 -115.29455 28163 ft 390 kts 225°
2026-05-08 21:31 47.69313 -115.32215 28658 ft 393 kts 225°
2026-05-08 21:31 47.67292 -115.35003 29163 ft 397 kts 225°
2026-05-08 21:31 47.65259 -115.37804 29665 ft 400 kts 225°
2026-05-08 21:32 47.63206 -115.40628 30142 ft 403 kts 225°
2026-05-08 21:32 47.61169 -115.43428 30524 ft 404 kts 225°
2026-05-08 21:32 47.59101 -115.46267 31026 ft 405 kts 225°
2026-05-08 21:32 47.57022 -115.49119 31507 ft 406 kts 225°
2026-05-08 21:33 47.54965 -115.51938 31962 ft 408 kts 225°
2026-05-08 21:33 47.52877 -115.54794 32423 ft 409 kts 225°
2026-05-08 21:33 47.50800 -115.57667 32872 ft 409 kts 227°
2026-05-08 21:33 47.49069 -115.60995 33190 ft 409 kts 240°
2026-05-08 21:34 47.47918 -115.64826 33650 ft 409 kts 252°
2026-05-08 21:34 47.47401 -115.68986 34058 ft 412 kts 265°
2026-05-08 21:34 47.47558 -115.73235 34442 ft 417 kts 276°
2026-05-08 21:34 47.48253 -115.77390 35036 ft 415 kts 283°
2026-05-08 21:35 47.49126 -115.81392 35570 ft 414 kts 284°
2026-05-08 21:35 47.50021 -115.85428 36077 ft 412 kts 283°
2026-05-08 21:35 47.50836 -115.89490 36582 ft 410 kts 282°
2026-05-08 21:35 47.51627 -115.93553 37013 ft 410 kts 282°
2026-05-08 21:36 47.52171 -115.96230 37371 ft 409 kts 282°
2026-05-08 21:36 47.53012 -116.00254 37902 ft 407 kts 282°
2026-05-08 21:36 47.53836 -116.04261 38420 ft 405 kts 282°
2026-05-08 21:36 47.54638 -116.08264 38848 ft 404 kts 282°
2026-05-08 21:37 47.55427 -116.12203 39170 ft 404 kts 282°
2026-05-08 21:37 47.56238 -116.16198 39459 ft 405 kts 282°
2026-05-08 21:37 47.57055 -116.20219 39811 ft 405 kts 283°
2026-05-08 21:37 47.57851 -116.24180 40152 ft 405 kts 283°
2026-05-08 21:38 47.58652 -116.28191 40473 ft 405 kts 283°
2026-05-08 21:38 47.59457 -116.32209 40792 ft 405 kts 283°
2026-05-08 21:38 47.60260 -116.36209 41137 ft 405 kts 284°
2026-05-08 21:38 47.61052 -116.40176 41460 ft 406 kts 284°
2026-05-08 21:39 47.61852 -116.44201 41802 ft 406 kts 284°
2026-05-08 21:39 47.62650 -116.48218 42147 ft 406 kts 284°
2026-05-08 21:39 47.63449 -116.52242 42490 ft 406 kts 284°
2026-05-08 21:39 47.64236 -116.56215 42836 ft 405 kts 285°
2026-05-08 21:40 47.65028 -116.60228 43090 ft 407 kts 285°
2026-05-08 21:40 47.66655 -116.68498 43074 ft 423 kts 285°
2026-05-08 21:41 47.68316 -116.76965 43091 ft 436 kts 285°
2026-05-08 21:41 47.69167 -116.81323 43087 ft 443 kts 285°
2026-05-08 21:41 47.70893 -116.90184 43095 ft 451 kts 285°
2026-05-08 21:42 47.72631 -116.99151 43084 ft 452 kts 284°
2026-05-08 21:42 47.74367 -117.08150 43070 ft 452 kts 284°
2026-05-08 21:43 47.76082 -117.17079 43075 ft 453 kts 284°
2026-05-08 21:43 47.77797 -117.26056 43077 ft 453 kts 284°
2026-05-08 21:44 47.79516 -117.35094 43066 ft 452 kts 284°
2026-05-08 21:44 47.81214 -117.44063 43061 ft 453 kts 284°
2026-05-08 21:45 47.82918 -117.53107 43068 ft 454 kts 284°
2026-05-08 21:45 47.84618 -117.62177 43065 ft 454 kts 284°
2026-05-08 21:46 47.86301 -117.71198 43041 ft 454 kts 284°
2026-05-08 21:46 47.87987 -117.80280 43043 ft 455 kts 284°
2026-05-08 21:47 47.89669 -117.89385 43017 ft 455 kts 284°
2026-05-08 21:47 47.91333 -117.98437 43005 ft 456 kts 284°
2026-05-08 21:48 47.93004 -118.07570 43008 ft 456 kts 284°
2026-05-08 21:48 47.94660 -118.16669 43022 ft 456 kts 283°
2026-05-08 21:49 47.96318 -118.25823 43006 ft 456 kts 283°
2026-05-08 21:49 47.97961 -118.34941 42997 ft 457 kts 283°
2026-05-08 21:50 47.99609 -118.44131 43003 ft 458 kts 283°
2026-05-08 21:50 48.01253 -118.53344 43004 ft 457 kts 283°
2026-05-08 21:51 48.02880 -118.62512 43008 ft 458 kts 283°
2026-05-08 21:51 48.04498 -118.71678 43007 ft 458 kts 283°
2026-05-08 21:52 48.06126 -118.80943 43013 ft 459 kts 283°
2026-05-08 21:52 48.07742 -118.90190 43010 ft 459 kts 283°
2026-05-08 21:53 48.09339 -118.99377 43006 ft 459 kts 283°
2026-05-08 21:53 48.10942 -119.08649 42998 ft 459 kts 283°
2026-05-08 21:54 48.12539 -119.17934 42977 ft 460 kts 283°
2026-05-08 21:54 48.14120 -119.27171 42980 ft 459 kts 283°
2026-05-08 21:55 48.15694 -119.36419 42973 ft 460 kts 283°
2026-05-08 21:56 48.18050 -119.50357 42985 ft 460 kts 283°
2026-05-08 21:56 48.18836 -119.55034 42734 ft 465 kts 283°
2026-05-08 21:56 48.19614 -119.59665 42962 ft 455 kts 283°
2026-05-08 21:57 48.21155 -119.68900 42978 ft 460 kts 282°
2026-05-08 21:57 48.22706 -119.78230 42973 ft 460 kts 282°
2026-05-08 21:58 48.24246 -119.87558 42972 ft 460 kts 282°
2026-05-08 21:58 48.25770 -119.96830 42971 ft 460 kts 282°
2026-05-08 21:59 48.26810 -120.06276 42712 ft 452 kts 271°
2026-05-08 21:59 48.26719 -120.10907 42097 ft 445 kts 266°
2026-05-08 21:59 48.26569 -120.15512 41518 ft 437 kts 267°
2026-05-08 21:59 48.26460 -120.20051 40952 ft 431 kts 267°
2026-05-08 22:00 48.26348 -120.24533 40390 ft 425 kts 266°
2026-05-08 22:00 48.26213 -120.28898 39850 ft 422 kts 266°
2026-05-08 22:00 48.26073 -120.33304 39305 ft 422 kts 266°
2026-05-08 22:00 48.25945 -120.37674 38761 ft 425 kts 266°
2026-05-08 22:01 48.25817 -120.42145 38144 ft 428 kts 265°
2026-05-08 22:01 48.25680 -120.46628 37595 ft 431 kts 265°
2026-05-08 22:01 48.25536 -120.51155 37030 ft 435 kts 265°
2026-05-08 22:01 48.25394 -120.55661 36462 ft 437 kts 265°
2026-05-08 22:02 48.25251 -120.60247 35897 ft 439 kts 265°
2026-05-08 22:02 48.25105 -120.64849 35320 ft 441 kts 264°
2026-05-08 22:02 48.24954 -120.69453 34745 ft 443 kts 264°
2026-05-08 22:02 48.24802 -120.74029 34175 ft 445 kts 264°
2026-05-08 22:03 48.24647 -120.78690 33547 ft 447 kts 264°
2026-05-08 22:03 48.24490 -120.83380 32965 ft 449 kts 264°
2026-05-08 22:03 48.24330 -120.88071 32383 ft 451 kts 264°
2026-05-08 22:03 48.24168 -120.92724 31801 ft 453 kts 264°
2026-05-08 22:04 48.24003 -120.97451 31208 ft 454 kts 264°
2026-05-08 22:04 48.23836 -121.02187 30621 ft 457 kts 264°
2026-05-08 22:04 48.23666 -121.06948 29460 ft 452 kts 268°
2026-05-08 22:05 48.23331 -121.16182 28824 ft 440 kts 264°
2026-05-08 22:05 48.23162 -121.20753 28243 ft 435 kts 264°
2026-05-08 22:05 48.22994 -121.25254 27687 ft 429 kts 264°
2026-05-08 22:05 48.22825 -121.29715 27124 ft 426 kts 264°
2026-05-08 22:06 48.22656 -121.34127 26575 ft 421 kts 265°
2026-05-08 22:06 48.22490 -121.38440 26037 ft 416 kts 265°
2026-05-08 22:06 48.22321 -121.42760 25487 ft 412 kts 265°
2026-05-08 22:06 48.22153 -121.47038 24957 ft 409 kts 265°
2026-05-08 22:07 48.21985 -121.51281 24427 ft 405 kts 265°
2026-05-08 22:07 48.21819 -121.55444 23906 ft 402 kts 265°
2026-05-08 22:07 48.21651 -121.59597 23334 ft 395 kts 266°
2026-05-08 22:07 48.21483 -121.63704 22818 ft 391 kts 265°
2026-05-08 22:08 48.21317 -121.67758 22324 ft 387 kts 266°
2026-05-08 22:08 48.21151 -121.71738 21820 ft 385 kts 266°
2026-05-08 22:08 48.20984 -121.75730 21317 ft 381 kts 266°
2026-05-08 22:08 48.20818 -121.79680 20827 ft 378 kts 266°
2026-05-08 22:09 48.20651 -121.83597 20331 ft 374 kts 266°
2026-05-08 22:09 48.20485 -121.87479 19846 ft 371 kts 266°
2026-05-08 22:09 48.20319 -121.91330 19295 ft 369 kts 266°
2026-05-08 22:09 48.20152 -121.95180 18585 ft 367 kts 266°
2026-05-08 22:10 48.19987 -121.98925 17804 ft 361 kts 266°
2026-05-08 22:10 48.19822 -122.02642 17021 ft 352 kts 267°
2026-05-08 22:10 48.19663 -122.06196 16259 ft 322 kts 267°
2026-05-08 22:10 48.19517 -122.09399 15509 ft 290 kts 267°
2026-05-08 22:11 48.19391 -122.12209 14752 ft 257 kts 268°
2026-05-08 22:11 48.19276 -122.14769 13972 ft 236 kts 268°
2026-05-08 22:11 48.19168 -122.17158 13098 ft 223 kts 268°
2026-05-08 22:11 48.19067 -122.19409 12281 ft 217 kts 267°
2026-05-08 22:12 48.18964 -122.21648 11498 ft 215 kts 267°
2026-05-08 22:12 48.18858 -122.23956 10760 ft 232 kts 266°
2026-05-08 22:12 48.18742 -122.26453 10077 ft 245 kts 266°
2026-05-08 22:12 48.18625 -122.28994 9315 ft 242 kts 266°
2026-05-08 22:13 48.18506 -122.31513 8562 ft 241 kts 266°
2026-05-08 22:13 48.18390 -122.33985 7827 ft 240 kts 266°
2026-05-08 22:13 48.18272 -122.36488 7086 ft 240 kts 266°
2026-05-08 22:13 48.18153 -122.38997 6432 ft 241 kts 266°
2026-05-08 22:14 48.18038 -122.41433 6388 ft 230 kts 266°
2026-05-08 22:14 48.17918 -122.43914 6403 ft 239 kts 266°
2026-05-08 22:14 48.17799 -122.46389 6406 ft 237 kts 266°
2026-05-08 22:14 48.17682 -122.48822 6406 ft 237 kts 266°
2026-05-08 22:15 48.17563 -122.51279 6409 ft 237 kts 266°
2026-05-08 22:15 48.17442 -122.53756 6299 ft 239 kts 266°
2026-05-08 22:15 48.17320 -122.56264 5776 ft 241 kts 266°
2026-05-08 22:15 48.17198 -122.58737 5263 ft 232 kts 266°
2026-05-08 22:16 48.17079 -122.61148 4515 ft 241 kts 266°
2026-05-08 22:16 48.16952 -122.63710 3753 ft 245 kts 265°
2026-05-08 22:16 48.16827 -122.66232 2984 ft 240 kts 265°
2026-05-08 22:16 48.16700 -122.68770 2593 ft 241 kts 265°
2026-05-08 22:17 48.16580 -122.71164 2676 ft 219 kts 265°
2026-05-08 22:17 48.16467 -122.73392 2852 ft 222 kts 265°
2026-05-08 22:17 48.16350 -122.75683 3006 ft 222 kts 265°
2026-05-08 22:17 48.16232 -122.78011 3006 ft 224 kts 265°
2026-05-08 22:18 48.16114 -122.80330 3008 ft 223 kts 265°
2026-05-08 22:18 48.15994 -122.82656 2996 ft 223 kts 265°
2026-05-08 22:18 48.15877 -122.84943 2994 ft 222 kts 265°
2026-05-08 22:18 48.15757 -122.87259 2992 ft 222 kts 265°
2026-05-08 22:19 48.15638 -122.89561 2987 ft 221 kts 265°
2026-05-08 22:19 48.15518 -122.91865 2981 ft 221 kts 265°
2026-05-08 22:19 48.15397 -122.94173 2920 ft 224 kts 265°
2026-05-08 22:19 48.15275 -122.96500 2791 ft 224 kts 265°
2026-05-08 22:20 48.15153 -122.98816 2656 ft 222 kts 265°
2026-05-08 22:20 48.15033 -123.01095 2524 ft 221 kts 265°
2026-05-08 22:20 48.14912 -123.03380 2476 ft 218 kts 265°
2026-05-08 22:20 48.14791 -123.05646 2472 ft 218 kts 265°
2026-05-08 22:21 48.14670 -123.07896 2475 ft 220 kts 265°
2026-05-08 22:21 48.14435 -123.10171 2463 ft 217 kts 256°
2026-05-08 22:21 48.13963 -123.12303 2467 ft 222 kts 249°
2026-05-08 22:21 48.13386 -123.14416 2750 ft 210 kts 248°
2026-05-08 22:22 48.12875 -123.16384 2937 ft 198 kts 249°
2026-05-08 22:22 48.12353 -123.18287 2915 ft 199 kts 246°
2026-05-08 22:22 48.11760 -123.20203 2769 ft 206 kts 245°
2026-05-08 22:22 48.11121 -123.22162 2704 ft 215 kts 244°
2026-05-08 22:23 48.10485 -123.24184 2701 ft 214 kts 245°
2026-05-08 22:23 48.09903 -123.26193 2752 ft 202 kts 248°
2026-05-08 22:23 48.09605 -123.27460 2818 ft 186 kts 252°
2026-05-08 22:23 48.09356 -123.29275 2713 ft 175 kts 264°
2026-05-08 22:24 48.09267 -123.31580 2330 ft 158 kts 269°
2026-05-08 22:24 48.09268 -123.32659 2125 ft 149 kts 272°
2026-05-08 22:24 48.09347 -123.34188 1748 ft 145 kts 278°
2026-05-08 22:24 48.09490 -123.35602 1540 ft 133 kts 280°
2026-05-08 22:25 48.09651 -123.36971 1374 ft 133 kts 281°
2026-05-08 22:25 48.09835 -123.38312 1288 ft 129 kts 284°
2026-05-08 22:25 48.10092 -123.39636 1385 ft 135 kts 285°
2026-05-08 22:25 48.10334 -123.40990 1453 ft 136 kts 285°
2026-05-08 22:26 48.10554 -123.42352 1411 ft 140 kts 284°
2026-05-08 22:26 48.10803 -123.43787 1319 ft 141 kts 285°
2026-05-08 22:26 48.11054 -123.45194 991 ft 139 kts 285°
2026-05-08 22:26 48.11291 -123.46569 656 ft 132 kts 286°
2026-05-08 22:27 48.11525 -123.47847 409 ft 122 kts 287°
2026-05-08 22:27 48.11722 -123.49011 297 ft 106 kts 286°
2026-05-08 22:27 48.11896 -123.49941 288 ft 73 kts 285°
2026-05-08 22:27 48.11978 -123.50437 294 ft 28 kts 284°
2026-05-08 22:28 48.12006 -123.50666 290 ft 16 kts 240°
2026-05-08 22:28 48.11926 -123.50705 291 ft 10 kts 163°
2026-05-08 22:28 48.11899 -123.50624 288 ft 8 kts 105°
2026-05-08 22:28 48.11883 -123.50527 287 ft 12 kts 104°
2026-05-08 22:29 48.11857 -123.50389 287 ft 15 kts 105°
2026-05-08 22:29 48.11832 -123.50249 286 ft 14 kts 105°
2026-05-08 22:29 48.11811 -123.50115 286 ft 12 kts 103°
2026-05-08 22:29 48.11797 -123.50029 286 ft 7 kts 107°
2026-05-08 22:30 48.11762 -123.50019 285 ft 5 kts 214°
2026-05-08 22:30 48.11761 -123.50058 285 ft 4 kts 280°
2026-05-08 22:30 48.11750 -123.50085 285 ft 0 kts 195°
2026-05-08 22:32 48.11743 -123.50079 285 ft 6 kts 146°
2026-05-08 22:33 48.11778 -123.50003 285 ft 9 kts 54°
2026-05-08 22:33 48.11769 -123.49872 284 ft 18 kts 103°
2026-05-08 22:33 48.11740 -123.49699 285 ft 16 kts 94°
2026-05-08 22:33 48.11739 -123.49549 287 ft 13 kts 89°
2026-05-08 22:34 48.11727 -123.49427 289 ft 11 kts 104°
2026-05-08 22:34 48.11706 -123.49315 287 ft 12 kts 105°
2026-05-08 22:34 48.11683 -123.49180 291 ft 15 kts 104°
2026-05-08 22:34 48.11654 -123.49008 290 ft 19 kts 105°
2026-05-08 22:35 48.11619 -123.48819 286 ft 18 kts 104°
2026-05-08 22:35 48.11602 -123.48691 285 ft 8 kts 77°
2026-05-08 22:35 48.11660 -123.48663 285 ft 10 kts 333°
2026-05-08 22:35 48.11710 -123.48901 288 ft 62 kts 284°
2026-05-08 22:36 48.11902 -123.49991 297 ft 141 kts 285°
2026-05-08 22:36 48.12201 -123.51370 683 ft 137 kts 297°
2026-05-08 22:36 48.12637 -123.52625 1071 ft 137 kts 300°
2026-05-08 22:36 48.13381 -123.53507 1388 ft 144 kts 342°
2026-05-08 22:37 48.14432 -123.53308 1438 ft 165 kts 22°
2026-05-08 22:37 48.15206 -123.52116 1621 ft 163 kts 66°
2026-05-08 22:37 48.15121 -123.50497 1221 ft 155 kts 111°
2026-05-08 22:37 48.14780 -123.49060 1059 ft 140 kts 103°
2026-05-08 22:38 48.14561 -123.47687 772 ft 132 kts 102°
2026-05-08 22:38 48.14392 -123.46356 490 ft 128 kts 98°
2026-05-08 22:38 48.14289 -123.45057 318 ft 124 kts 95°
2026-05-08 22:38 48.14226 -123.43796 170 ft 122 kts 93°
2026-05-08 22:39 48.14180 -123.42533 42 ft 119 kts 93°
2026-05-08 22:39 48.14133 -123.41460 13 ft 74 kts 92°
2026-05-08 22:39 48.14115 -123.41033 11 ft 20 kts 98°
2026-05-08 22:39 48.14046 -123.40920 11 ft 11 kts 146°
2026-05-08 22:40 48.14027 -123.40865 11 ft 1 kts 54°
2026-05-08 22:40 48.14038 -123.40854 12 ft 0 kts 29°